Location: Newark
(49.8969°N, 3.3422°E)
Time: 01:56:27
(UTC+00:00)

Vanguard 1 Rocket - Pass Details

Date: 29 January 2020
Orbit: 650 x 4226 km, 34.3° (Epoch: 21 February)

Event Time Altitude Azimuth Distance (km) Brightness Sun altitude
Rises 07:35:59 0° 198° (SSW) 3,450 10.5 0.7°
Reaches altitude 10° 07:39:23 10° 174° (S) 2,879 10.6 1.2°
Maximum altitude 07:43:09 15° 141° (SE) 2,963 11.5 1.7°
Drops below altitude 10° 07:48:04 10° 110° (ESE) 3,975 12.7 2.4°
Sets 07:54:24 0° 92° (E) 5,783 12.6 3.3°
